WLF9634 NZCH-NZWN

Flight info

Callsign WLF9634
Flight time 0h 33m
Altitude 21000
Route GRETA Y393 WARDS
Aircraft B738/M-SDE2E3FGHIRWXY/LB1

Departure

Time 2026-04-30 20:13
Airport Christchurch International Airport (NZCH)

Arrival

Time 2026-04-30 20:46
Airport Wellington International Airport (NZWN)
Time Latitude Longitude Altitude Speed Heading
2026-04-30 19:33 -43.48790 172.53821 110 ft 0 kts 109°
2026-04-30 20:03 -43.48789 172.53818 111 ft 3 kts 109°
2026-04-30 20:04 -43.48778 172.53785 109 ft 4 kts 123°
2026-04-30 20:04 -43.48761 172.53758 111 ft 4 kts 145°
2026-04-30 20:04 -43.48738 172.53746 111 ft 4 kts 183°
2026-04-30 20:05 -43.48721 172.53753 111 ft 0 kts 220°
2026-04-30 20:07 -43.48726 172.53748 110 ft 4 kts 220°
2026-04-30 20:08 -43.48778 172.53688 111 ft 16 kts 220°
2026-04-30 20:08 -43.48870 172.53587 109 ft 17 kts 216°
2026-04-30 20:08 -43.48962 172.53483 114 ft 17 kts 221°
2026-04-30 20:08 -43.49052 172.53374 113 ft 19 kts 221°
2026-04-30 20:09 -43.49153 172.53261 117 ft 18 kts 219°
2026-04-30 20:09 -43.49252 172.53147 117 ft 19 kts 220°
2026-04-30 20:09 -43.49435 172.52936 127 ft 17 kts 219°
2026-04-30 20:10 -43.49584 172.52760 126 ft 13 kts 221°
2026-04-30 20:10 -43.49662 172.52670 128 ft 16 kts 218°
2026-04-30 20:10 -43.49750 172.52570 129 ft 17 kts 220°
2026-04-30 20:11 -43.49791 172.52430 134 ft 0 kts 275°
2026-04-30 20:11 -43.49790 172.52425 127 ft 2 kts 275°
2026-04-30 20:11 -43.49790 172.52366 125 ft 11 kts 270°
2026-04-30 20:12 -43.49653 172.52338 125 ft 30 kts 40°
2026-04-30 20:12 -43.49306 172.52744 123 ft 105 kts 40°
2026-04-30 20:12 -43.48551 172.53610 117 ft 173 kts 41°
2026-04-30 20:13 -43.47537 172.54748 692 ft 188 kts 35°
2026-04-30 20:13 -43.46504 172.55793 1866 ft 185 kts 36°
2026-04-30 20:13 -43.45450 172.56865 2719 ft 189 kts 36°
2026-04-30 20:13 -43.44393 172.57943 3607 ft 190 kts 35°
2026-04-30 20:14 -43.43321 172.59035 4429 ft 194 kts 36°
2026-04-30 20:14 -43.42225 172.60151 5197 ft 200 kts 35°
2026-04-30 20:14 -43.41104 172.61292 6076 ft 201 kts 36°
2026-04-30 20:14 -43.39964 172.62454 6878 ft 206 kts 36°
2026-04-30 20:15 -43.38804 172.63636 7704 ft 209 kts 36°
2026-04-30 20:15 -43.37622 172.64840 8486 ft 213 kts 35°
2026-04-30 20:15 -43.36441 172.66043 9231 ft 216 kts 35°
2026-04-30 20:15 -43.35205 172.67299 9994 ft 220 kts 35°
2026-04-30 20:16 -43.33981 172.68546 10698 ft 224 kts 35°
2026-04-30 20:16 -43.32711 172.69835 11400 ft 228 kts 35°
2026-04-30 20:16 -43.31426 172.71140 12076 ft 232 kts 35°
2026-04-30 20:16 -43.30118 172.72469 12729 ft 236 kts 35°
2026-04-30 20:17 -43.28789 172.73817 13391 ft 239 kts 35°
2026-04-30 20:17 -43.27444 172.75182 14022 ft 240 kts 35°
2026-04-30 20:17 -43.26096 172.76548 14645 ft 243 kts 34°
2026-04-30 20:17 -43.24743 172.77918 15216 ft 245 kts 34°
2026-04-30 20:18 -43.23365 172.79313 15801 ft 247 kts 35°
2026-04-30 20:18 -43.21970 172.80724 16370 ft 250 kts 34°
2026-04-30 20:18 -43.20564 172.82146 16905 ft 252 kts 34°
2026-04-30 20:18 -43.19146 172.83579 17449 ft 254 kts 34°
2026-04-30 20:19 -43.17694 172.85044 17819 ft 265 kts 34°
2026-04-30 20:19 -43.16688 172.86060 17957 ft 277 kts 34°
2026-04-30 20:19 -43.14517 172.88251 18225 ft 301 kts 34°
2026-04-30 20:19 -43.12775 172.90007 18412 ft 321 kts 35°
2026-04-30 20:20 -43.10948 172.91848 18585 ft 340 kts 35°
2026-04-30 20:20 -43.08966 172.93842 18738 ft 359 kts 35°
2026-04-30 20:20 -43.06932 172.95887 18987 ft 374 kts 35°
2026-04-30 20:20 -43.04814 172.98016 19482 ft 379 kts 35°
2026-04-30 20:21 -43.02680 173.00158 20089 ft 382 kts 35°
2026-04-30 20:21 -43.00523 173.02322 20650 ft 386 kts 35°
2026-04-30 20:21 -42.98349 173.04502 21158 ft 390 kts 36°
2026-04-30 20:21 -42.96145 173.06717 21531 ft 394 kts 36°
2026-04-30 20:22 -42.93950 173.08925 21595 ft 391 kts 36°
2026-04-30 20:22 -42.91760 173.11125 21597 ft 391 kts 36°
2026-04-30 20:22 -42.89571 173.13323 21595 ft 391 kts 36°
2026-04-30 20:22 -42.87383 173.15517 21596 ft 391 kts 36°
2026-04-30 20:23 -42.85188 173.17717 21596 ft 391 kts 36°
2026-04-30 20:23 -42.83003 173.19906 21594 ft 391 kts 36°
2026-04-30 20:23 -42.80812 173.22097 21598 ft 390 kts 36°
2026-04-30 20:23 -42.78624 173.24283 21600 ft 390 kts 36°
2026-04-30 20:24 -42.76437 173.26467 21606 ft 390 kts 36°
2026-04-30 20:24 -42.74276 173.28623 21602 ft 390 kts 36°
2026-04-30 20:24 -42.72083 173.30810 21614 ft 390 kts 36°
2026-04-30 20:24 -42.69892 173.32992 21601 ft 390 kts 36°
2026-04-30 20:25 -42.65515 173.37346 21599 ft 389 kts 36°
2026-04-30 20:25 -42.63327 173.39521 21609 ft 389 kts 36°
2026-04-30 20:26 -42.58983 173.43831 21607 ft 389 kts 36°
2026-04-30 20:26 -42.54611 173.48160 21622 ft 389 kts 36°
2026-04-30 20:26 -42.52422 173.50326 21617 ft 389 kts 36°
2026-04-30 20:27 -42.48047 173.54648 21627 ft 388 kts 36°
2026-04-30 20:27 -42.43678 173.58956 21619 ft 388 kts 36°
2026-04-30 20:28 -42.39317 173.63248 21622 ft 387 kts 36°
2026-04-30 20:28 -42.34981 173.67509 21634 ft 387 kts 36°
2026-04-30 20:29 -42.30624 173.71783 21634 ft 385 kts 36°
2026-04-30 20:30 -42.24402 173.77873 21233 ft 357 kts 36°
2026-04-30 20:30 -42.18435 173.83700 20202 ft 348 kts 36°
2026-04-30 20:31 -42.12630 173.89354 19163 ft 341 kts 36°
2026-04-30 20:32 -42.06920 173.94904 18143 ft 334 kts 36°
2026-04-30 20:32 -42.03179 173.98534 17468 ft 329 kts 36°
2026-04-30 20:33 -42.01330 174.00327 17130 ft 326 kts 36°
2026-04-30 20:33 -41.97667 174.03873 16466 ft 322 kts 36°
2026-04-30 20:33 -41.95855 174.05625 16133 ft 320 kts 36°
2026-04-30 20:34 -41.92291 174.09067 15488 ft 316 kts 36°
2026-04-30 20:34 -41.88719 174.12513 14562 ft 320 kts 36°
2026-04-30 20:35 -41.86885 174.14281 13937 ft 328 kts 37°
2026-04-30 20:35 -41.85646 174.15474 13630 ft 330 kts 37°
2026-04-30 20:35 -41.81937 174.19042 12940 ft 326 kts 37°
2026-04-30 20:36 -41.80104 174.20803 12625 ft 323 kts 37°
2026-04-30 20:36 -41.77696 174.23115 12195 ft 320 kts 37°
2026-04-30 20:36 -41.74699 174.25990 11640 ft 317 kts 37°
2026-04-30 20:37 -41.72959 174.27780 11292 ft 314 kts 45°
2026-04-30 20:37 -41.71443 174.29865 10922 ft 312 kts 47°
2026-04-30 20:37 -41.69925 174.31919 10623 ft 309 kts 46°
2026-04-30 20:37 -41.68410 174.33939 10361 ft 304 kts 46°
2026-04-30 20:38 -41.66924 174.35899 10224 ft 295 kts 45°
2026-04-30 20:38 -41.65475 174.37801 10038 ft 288 kts 45°
2026-04-30 20:38 -41.64059 174.39691 9701 ft 287 kts 46°
2026-04-30 20:39 -41.61241 174.43449 9058 ft 285 kts 45°
2026-04-30 20:39 -41.59840 174.45313 8757 ft 283 kts 45°
2026-04-30 20:39 -41.58453 174.47157 8448 ft 281 kts 45°
2026-04-30 20:40 -41.55701 174.50811 7843 ft 277 kts 45°
2026-04-30 20:40 -41.54359 174.52591 7634 ft 272 kts 45°
2026-04-30 20:40 -41.53042 174.54337 7492 ft 262 kts 45°
2026-04-30 20:41 -41.50556 174.57630 7229 ft 242 kts 45°
2026-04-30 20:41 -41.49403 174.59195 7036 ft 234 kts 52°
2026-04-30 20:41 -41.48606 174.61087 6587 ft 237 kts 66°
2026-04-30 20:41 -41.47905 174.63137 6013 ft 246 kts 66°
2026-04-30 20:42 -41.47212 174.65217 5486 ft 245 kts 69°
2026-04-30 20:42 -41.46718 174.67411 4837 ft 250 kts 78°
2026-04-30 20:42 -41.46369 174.72061 3521 ft 256 kts 84°
2026-04-30 20:43 -41.46189 174.74410 3112 ft 247 kts 77°
2026-04-30 20:43 -41.45686 174.76473 3101 ft 221 kts 62°
2026-04-30 20:43 -41.44892 174.78034 3088 ft 185 kts 46°
2026-04-30 20:44 -41.42943 174.79796 3081 ft 170 kts 21°
2026-04-30 20:44 -41.41786 174.80160 3119 ft 172 kts
2026-04-30 20:44 -41.39376 174.80180 2012 ft 175 kts
2026-04-30 20:45 -41.36959 174.80421 942 ft 169 kts
2026-04-30 20:45 -41.35789 174.80498 544 ft 167 kts
2026-04-30 20:45 -41.34627 174.80576 234 ft 167 kts
2026-04-30 20:46 -41.32017 174.80739 48 ft 27 kts
2026-04-30 20:46 -41.31901 174.80806 55 ft 13 kts 84°
2026-04-30 20:47 -41.32088 174.80854 47 ft 19 kts 186°
2026-04-30 20:47 -41.32235 174.80850 42 ft 23 kts 183°
2026-04-30 20:48 -41.32542 174.80828 33 ft 15 kts 184°
2026-04-30 20:48 -41.32660 174.80818 29 ft 14 kts 181°
2026-04-30 20:48 -41.32713 174.80859 29 ft 9 kts 111°
2026-04-30 20:48 -41.32708 174.80921 29 ft 6 kts 77°
2026-04-30 20:49 -41.32702 174.80971 29 ft 5 kts 84°
2026-04-30 20:49 -41.32719 174.81002 29 ft 5 kts 166°
2026-04-30 20:49 -41.32745 174.81016 29 ft 3 kts 167°
2026-04-30 20:50 -41.32752 174.81017 29 ft 0 kts 172°